Weather History for Savanna, IL

Change the Weather History Date:

Sunday, November 25, 2012

  Actual Average (KCWI) Record (KCWI)
Temperature  
Mean Temperature 34 °F -  
Max Temperature 43 °F 44 °F 62 °F (1976)
Min Temperature 24 °F 27 °F 2 °F (1950)
Degree Days  
Heating Degree Days 32    
Moisture  
Dew Point 24 °F    
Average Humidity 67    
Maximum Humidity 86    
Minimum Humidity 47    
Precipitation  
Precipitation 0.00 in - - ()
Sea Level Pressure  
Sea Level Pressure 29.94 in    
Wind  
Wind Speed 5 mph (WNW)    
Max Wind Speed 10 mph    
Max Gust Speed -    
Visibility 10 miles    
Events      
Averages and records for this station are not official NWS values.
T = Trace of Precipitation, MM = Missing Value Source: NWS Daily Summary

Daily Weather History Graph

Daily Weather History Graph

Search for Another Location

Airport:

Trip Planner

Search our weather history database for the weather conditions in past years. The results will help you decide how hot, cold, wet, or windy it might be!

Date:

Astronomy

Nov. 25, 2012 Rise Set
Actual Time 7:02 AM CST 4:31 PM CST
Civil Twilight 6:32 AM CST 5:02 PM CST
Nautical Twilight 5:57 AM CST 5:37 PM CST
Astronomical Twilight 5:24 AM CST 6:10 PM CST
Moon 2:50 PM CST (11/25) 4:15 AM CST (11/25)
Length of Visible Light 10h 30m
Length of Day
9h 28m
Waxing Gibbous, 93% of the Moon is Illuminated
Nov 25
Waxing Gibbous
Nov 28
Full
Dec 6
Last Quarter
Dec 13
New
Dec 19
First Quarter

Hourly Weather History & Observations

Time (CST) Temp. Windchill Dew Point Humidity Pressure Visibility Wind Dir Wind Speed Gust Speed Precip Events Conditions
12:15 AM 31.5 °F 24.2 °F 22.5 °F 69% 29.91 in 10.0 mi South 8.1 mph - N/A   Mostly Cloudy
12:35 AM 31.1 °F 22.4 °F 22.5 °F 70% 29.90 in 10.0 mi South 10.4 mph - N/A   Scattered Clouds
12:55 AM 31.1 °F 24.5 °F 22.5 °F 70% 29.88 in 10.0 mi SSE 6.9 mph - N/A   Clear
1:15 AM 31.8 °F 24.6 °F 22.8 °F 69% 29.88 in 10.0 mi South 8.1 mph - N/A   Scattered Clouds
1:35 AM 32.0 °F 25.6 °F 22.6 °F 68% 29.86 in 10.0 mi SSE 6.9 mph - N/A   Mostly Cloudy
1:55 AM 32.0 °F 24.2 °F 22.8 °F 69% 29.86 in 10.0 mi South 9.2 mph - N/A   Mostly Cloudy
2:15 AM 32.0 °F 24.8 °F 22.8 °F 69% 29.86 in 10.0 mi South 8.1 mph - N/A   Mostly Cloudy
2:35 AM 31.8 °F 26.2 °F 23.0 °F 70% 29.86 in 10.0 mi South 5.8 mph - N/A   Clear
2:55 AM 30.7 °F 27.3 °F 23.2 °F 74% 29.86 in 10.0 mi South 3.5 mph - N/A   Scattered Clouds
3:15 AM 31.1 °F 25.4 °F 23.2 °F 72% 29.86 in 10.0 mi SSW 5.8 mph - N/A   Scattered Clouds
3:35 AM 30.2 °F - 23.0 °F 75% 29.85 in 10.0 mi Calm Calm - N/A   Clear
3:55 AM 28.9 °F - 23.7 °F 81% 29.85 in 10.0 mi Calm Calm - N/A   Clear
4:15 AM 28.4 °F - 23.4 °F 81% 29.85 in 10.0 mi Calm Calm - N/A   Clear
4:35 AM 29.3 °F - 23.0 °F 77% 29.85 in 10.0 mi Calm Calm - N/A   Clear
4:55 AM 31.5 °F - 23.5 °F 73% 29.85 in 10.0 mi Calm Calm - N/A   Clear
5:15 AM 30.0 °F - 22.6 °F 74% 29.85 in 10.0 mi Calm Calm - N/A   Clear
5:35 AM 25.5 °F - 21.7 °F 86% 29.85 in 10.0 mi Calm Calm - N/A   Clear
5:55 AM 25.7 °F - 21.2 °F 83% 29.85 in 10.0 mi Calm Calm - N/A   Clear
6:15 AM 25.3 °F - 21.0 °F 84% 29.86 in 10.0 mi Calm Calm - N/A   Clear
6:35 AM 28.2 °F - 22.6 °F 80% 29.86 in 10.0 mi Calm Calm - N/A   Clear
6:55 AM 28.4 °F - 23.0 °F 80% 29.86 in 10.0 mi Calm Calm - N/A   Clear
7:15 AM 24.8 °F - 20.3 °F 83% 29.87 in 10.0 mi Calm Calm - N/A   Clear
7:35 AM 26.1 °F - 21.2 °F 82% 29.87 in 10.0 mi Calm Calm - N/A   Clear
7:55 AM 25.9 °F - 22.1 °F 86% 29.88 in 10.0 mi Calm Calm - N/A   Clear
8:15 AM 30.0 °F - 25.2 °F 82% 29.88 in 10.0 mi Calm Calm - N/A   Clear
8:35 AM 32.0 °F - 24.1 °F 73% 29.89 in 10.0 mi Calm Calm - N/A   Clear
8:55 AM 32.9 °F 28.5 °F 24.3 °F 71% 29.91 in 10.0 mi West 4.6 mph - N/A   Clear
9:15 AM 33.8 °F 28.6 °F 24.4 °F 69% 29.91 in 10.0 mi WNW 5.8 mph - N/A   Clear
9:35 AM 34.3 °F 28.4 °F 23.9 °F 66% 29.92 in 10.0 mi WNW 6.9 mph - N/A   Clear
9:55 AM 34.3 °F 29.2 °F 24.1 °F 66% 29.92 in 10.0 mi WNW 5.8 mph - N/A   Clear
10:15 AM 35.8 °F 31.9 °F 24.1 °F 62% 29.93 in 10.0 mi West 4.6 mph - N/A   Clear
10:35 AM 36.7 °F 31.2 °F 23.9 °F 60% 29.93 in 10.0 mi WNW 6.9 mph - N/A   Clear
10:55 AM 37.2 °F 31.2 °F 23.7 °F 58% 29.93 in 10.0 mi WNW 8.1 mph - N/A   Clear
11:15 AM 38.8 °F 33.8 °F 23.9 °F 55% 29.92 in 10.0 mi WNW 6.9 mph - N/A   Clear
11:35 AM 38.8 °F 34.6 °F 23.9 °F 55% 29.91 in 10.0 mi West 5.8 mph - N/A   Clear
11:55 AM 39.4 °F 35.2 °F 23.7 °F 54% 29.91 in 10.0 mi West 5.8 mph - N/A   Clear
12:15 PM 40.3 °F 36.3 °F 23.7 °F 52% 29.91 in 10.0 mi West 5.8 mph - N/A   Clear
12:35 PM 41.5 °F 37.1 °F 23.7 °F 49% 29.91 in 10.0 mi West 6.9 mph - N/A   Clear
12:55 PM 41.9 °F 37.5 °F 23.9 °F 49% 29.91 in 10.0 mi WNW 6.9 mph - N/A   Clear
1:15 PM 43.0 °F 37.7 °F 23.9 °F 47% 29.91 in 10.0 mi WNW 9.2 mph - N/A   Clear
1:35 PM 42.3 °F 37.3 °F 24.6 °F 50% 29.91 in 10.0 mi WNW 8.1 mph - N/A   Clear
1:55 PM 43.2 °F 38.4 °F 24.3 °F 47% 29.92 in 10.0 mi WNW 8.1 mph - N/A   Clear
2:15 PM 42.3 °F 37.9 °F 23.2 °F 47% 29.91 in 10.0 mi WNW 6.9 mph - N/A   Clear
2:35 PM 41.9 °F 36.9 °F 23.9 °F 49% 29.92 in 10.0 mi WNW 8.1 mph - N/A   Clear
2:55 PM 41.5 °F 36.4 °F 23.9 °F 50% 29.93 in 10.0 mi WNW 8.1 mph - N/A   Clear
3:15 PM 40.6 °F 34.8 °F 24.1 °F 52% 29.94 in 10.0 mi WNW 9.2 mph - N/A   Clear
3:35 PM 39.7 °F 34.9 °F 24.3 °F 54% 29.95 in 10.0 mi NW 6.9 mph - N/A   Clear
3:55 PM 39.2 °F 35.0 °F 24.8 °F 56% 29.96 in 10.0 mi NW 5.8 mph - N/A   Clear
4:15 PM 38.3 °F 33.2 °F 25.3 °F 60% 29.96 in 10.0 mi NNW 6.9 mph - N/A   Clear
4:35 PM 37.8 °F 33.3 °F 25.3 °F 61% 29.96 in 10.0 mi NNW 5.8 mph - N/A   Clear
4:55 PM 36.9 °F 33.1 °F 25.3 °F 63% 29.96 in 10.0 mi NNW 4.6 mph - N/A   Clear
5:15 PM 35.6 °F 32.8 °F 25.2 °F 66% 29.97 in 10.0 mi NW 3.5 mph - N/A   Clear
5:35 PM 34.7 °F 30.6 °F 25.2 °F 68% 29.99 in 10.0 mi WNW 4.6 mph - N/A   Clear
5:55 PM 35.1 °F 32.2 °F 26.4 °F 71% 30.00 in 10.0 mi West 3.5 mph - N/A   Clear
6:15 PM 36.0 °F 31.1 °F 25.7 °F 66% 30.00 in 10.0 mi WNW 5.8 mph - N/A   Clear
6:35 PM 36.0 °F 32.1 °F 26.1 °F 67% 30.01 in 10.0 mi WNW 4.6 mph - N/A   Scattered Clouds
6:55 PM 35.8 °F 31.9 °F 25.7 °F 67% 30.02 in 10.0 mi WNW 4.6 mph - N/A   Mostly Cloudy
7:15 PM 35.6 °F 31.7 °F 25.9 °F 68% 30.03 in 10.0 mi WNW 4.6 mph - N/A   Overcast
7:35 PM 35.8 °F 33.0 °F 25.7 °F 67% 30.03 in 10.0 mi WNW 3.5 mph - N/A   Overcast
7:55 PM 35.8 °F 30.9 °F 25.7 °F 67% 30.03 in 10.0 mi WNW 5.8 mph - N/A   Overcast
8:15 PM 35.8 °F 33.0 °F 25.7 °F 67% 30.03 in 10.0 mi WNW 3.5 mph - N/A   Overcast
8:35 PM 35.6 °F 32.8 °F 26.1 °F 68% 30.04 in 10.0 mi WNW 3.5 mph - N/A   Overcast
8:55 PM 35.2 °F 31.2 °F 26.2 °F 70% 30.05 in 10.0 mi NW 4.6 mph - N/A   Overcast
9:15 PM 34.9 °F 32.0 °F 26.1 °F 70% 30.05 in 10.0 mi NW 3.5 mph - N/A   Overcast
9:35 PM 34.2 °F 30.0 °F 25.7 °F 71% 30.06 in 10.0 mi NW 4.6 mph - N/A   Mostly Cloudy
9:55 PM 34.3 °F 31.4 °F 25.7 °F 71% 30.07 in 10.0 mi NW 3.5 mph - N/A   Mostly Cloudy
10:15 PM 34.2 °F 31.2 °F 26.2 °F 73% 30.06 in 10.0 mi WNW 3.5 mph - N/A   Scattered Clouds
10:35 PM 33.1 °F 30.0 °F 26.1 °F 75% 30.08 in 10.0 mi WNW 3.5 mph - N/A   Clear
10:55 PM 33.3 °F 30.2 °F 26.1 °F 75% 30.08 in 10.0 mi WNW 3.5 mph - N/A   Clear
11:15 PM 32.2 °F 28.9 °F 25.9 °F 78% 30.10 in 10.0 mi WNW 3.5 mph - N/A   Clear
11:35 PM 32.4 °F 25.3 °F 25.7 °F 76% 30.11 in 10.0 mi NW 8.1 mph - N/A   Clear
11:55 PM 32.4 °F 26.0 °F 24.8 °F 74% 30.11 in 10.0 mi NNW 6.9 mph - N/A   Clear